Location: Binningen
(47.7924°N, 8.7261°E)
Time: 15:55:40
(UTC+00:00)

ATLAS CENTAUR R/B - Pass Details

Date: 17 May 2021
Orbit: 472 x 671 km, 64.6° (Epoch: 13 June)

Event Time Altitude Azimuth Distance (km) Brightness Sun altitude
Exits shadow 22:11:21 71° 228° (SW) 520 1.0 -20.8°
Maximum altitude 22:11:43 86° 308° (NW) 495 1.0 -20.9°
Drops below altitude 10° 22:15:33 10° 38° (NE) 1,724 4.3 -21.1°
Sets 22:17:47 0° 38° (NE) 2,643 5.3 -21.2°
